Location: Newark
(13.6797°N, 8.5297°E)
Time: 13:48:22
(UTC+00:00)

Altair - Pass Details

Date: 27 January 2020
Orbit: 1502 x 1682 km, 47.2° (Epoch: 25 February)

Event Time Altitude Azimuth Distance (km) Brightness Sun altitude
Rises 15:22:14 0° 318° (NW) 4,895 10.3 26.2°
Reaches altitude 10° 15:25:24 10° 318° (NW) 3,889 9.9 25.5°
Maximum altitude 15:35:23 89° 228° (SW) 1,608 8.1 23.4°
Drops below altitude 10° 15:44:57 10° 140° (SE) 3,745 9.5 21.3°
Sets 15:47:57 0° 140° (SE) 4,706 9.9 20.7°
